Flag Weather past 2 weeks in Zielona Góra, Poland

Now
31 °F

Fog.


Feels Like: 27 °F
Forecast: 25 / 29 °F
Wind: 3 mph from East

Location: Zielona Gora

Current Time: Nov 28, 2014 at 12:14:00 PM

Latest Report: Nov 28, 2014 at 11:00 AM


Visibility: 2 mi

Pressure: 30.17 "Hg

Humidity: 95%

Dew point: 29 °F

Location of Zielona GóraLocation

Historic Weather in Zielona Góra — Graph

°F

Zielona Góra temperature yesterday

Maximum temperature yesterday: 36 °F (at 1:00 PM)
Minimum temperature yesterday: 30 °F (at 8:00 AM)
Average temperature yesterday: 33 °F

Past Weeks' High & Low Weather Summary

 TemperatureHumidityPressure
High52 °F (Nov 13, 1:00 PM)100% (Nov 14, 4:00 AM)30.37 "Hg (Nov 14, 4:00 AM)
Low29 °F (Nov 28, 2:00 AM)78% (Nov 22, 3:00 PM)29.64 "Hg (Nov 16, 12:00 PM)
Average40 °F96%30.11 "Hg
* Reported Nov 13 10:00 AM — Nov 28 10:00 AM, Zielona Góra, Weather by CustomWeather, © 2014

Note: Actual official high and low records may vary slightly from our data, if they occured in-between our weather recording intervals... More about our weather records

Advertising

Zielona Góra weather history for previous 24 hours

 ConditionsComfort  
Time TempWeatherWind HumidityBarometerVisibility
10:00 AM
Nov 28
31 °FFog.3 mph95%30.17 "Hg2 mi
9:00 AM31 °FFog.5 mph95%30.17 "Hg2 mi
8:00 AM31 °FFog.3 mph94%30.16 "Hg2 mi
7:00 AM30 °FFog.5 mph93%30.15 "Hg2 mi
6:00 AM30 °FFog.5 mph91%30.14 "Hg4 mi
5:00 AM30 °FFog.5 mph90%30.13 "Hg4 mi
4:00 AM30 °FFog.6 mph90%30.13 "Hg4 mi
3:00 AM29 °FFog.5 mph92%30.13 "Hg3 mi
2:00 AM29 °FFog.3 mph93%30.14 "Hg3 mi
1:00 AM29 °FFog.3 mph93%30.14 "Hg3 mi
12:00 AM30 °FFog.3 mph95%30.12 "Hg2 mi
11:00 PM
Nov 27
31 °FFog.3 mph95%30.12 "Hg2 mi
10:00 PM31 °FFog.5 mph95%30.12 "Hg2 mi
9:00 PM31 °FFog.3 mph95%30.11 "Hg2 mi
8:00 PM32 °FFog.3 mph94%30.10 "Hg3 mi
7:00 PM33 °FFog.3 mph94%30.09 "Hg3 mi
6:00 PM33 °FFog.3 mph92%30.09 "Hg3 mi
5:00 PM35 °FFog.3 mph93%30.08 "Hg3 mi
4:00 PM35 °FFog.2 mph91%30.08 "Hg3 mi
3:00 PM36 °FFog.3 mph88%30.07 "Hg4 mi
2:00 PM36 °FFog.3 mph89%30.08 "Hg4 mi
1:00 PM36 °FFog.3 mph90%30.08 "Hg3 mi
12:00 PM35 °FFog.5 mph94%30.09 "Hg2 mi
Weather by CustomWeather, © 2014

See weather overviewHow to use our weather pages